Temp
8 8 8 8 7 7 7 7 7 7 6 6 6 6 6 6 6 5 6 6 6 5 5 5 5 5 5 5 5 5 5 5 5
8 8 8 7 7 7 7 6 6 6 6 6 6 6 5 5 5 5 5 5 5 5 5 5 5 5 5 5 5 5 5 5 5
8 7 7 7 7 7 6 6 6 6 5 5 5 5 5 5 5 5 5 5 5 5 5 5 5 5 5 5 5 5 5 5 5
7 7 7 7 6 6 6 6 6 5 5 5 5 5 5 5 5 5 5 5 5 5 5 5 5 5 5 5 4 4 4 4 4
7 7 7 6 6 6 6 6 6 5 5 5 5 5 5 5 5 5 5 5 5 5 5 5 5 5 5 4 4 4 4 4 4
7 6 6 6 6 6 6 6 5 5 5 5 5 5 5 5 6 6 5 5 5 5 5 5 5 4 4 4 4 4 4 4 4
6 6 6 6 6 6 6 6 6 6 6 5 5 5 5 5 6 5 5 5 5 5 5 5 4 4 4 4 4 4 4 4 3
6 6 6 6 6 6 6 6 6 6 6 6 5 5 5 5 5 5 5 5 5 5 5 5 4 4 4 4 3 3 3 3 3
7 7 6 6 6 6 6 6 6 6 6 6 5 5 5 5 5 5 5 5 5 4 4 4 4 4 4 3 3 3 3 3 3
7 7 7 6 6 6 6 6 6 6 6 6 6 5 5 5 5 5 5 5 4 4 4 4 4 4 4 3 3 3 3 2 2
7 7 7 6 6 6 6 6 6 6 6 6 6 5 5 5 5 5 4 4 4 4 4 4 4 3 4 3 3 3 2 2 2
7 7 7 7 6 6 6 6 6 6 6 6 6 5 5 5 5 5 5 4 4 4 4 4 4 3 3 3 2 2 2 2 2
7 6 6 6 7 7 6 6 6 6 6 6 6 5 5 5 5 5 4 4 4 4 3 3 3 3 3 3 3 2 2 1 1
7 7 7 7 7 7 7 6 6 6 6 6 6 5 5 5 5 4 4 4 4 3 3 3 3 3 3 2 2 2 2 2 1
7 7 7 7 7 7 6 6 7 6 6 6 5 5 5 5 4 4 4 4 4 3 3 3 3 3 3 3 2 2 2 1 1
7 7 7 7 7 6 6 6 6 6 5 5 5 5 5 4 4 4 3 3 3 3 3 3 3 3 3 2 2 2 2 2 2
7 7 6 6 6 6 6 5 5 4 4 4 4 4 4 4 4 3 3 3 3 3 3 2 2 2 2 2 2 2 2 2 2
6 6 6 5 5 5 5 5 4 4 2 2 2 3 3 3 3 3 3 3 3 2 3 2 2 2 2 2 2 2 2 2 2
6 6 6 6 5 4 4 4 3 3 3 2 2 2 2 3 2 2 2 1 2 2 2 2 2 2 1 1 1 1 2 1 1
6 6 5 4 3 3 3 3 3 3 3 3 2 2 3 3 2 2 2 2 2 1 2 2 2 2 1 1 2 2 1 1 1
Height
3181 3183 3185 3186 3187 3188 3188 3189 3189 3189 3189 3189 3189 3189 3189 3188 3188 3188 3187 3187 3186 3185 3184 3183 3182 3181 3180 3178 3177 3176 3174 3173 3172
3183 3185 3186 3188 3189 3189 3190 3190 3190 3190 3191 3192 3192 3191 3191 3191 3190 3190 3189 3188 3187 3187 3185 3184 3183 3182 3181 3180 3179 3177 3176 3175 3173
3184 3186 3187 3189 3190 3191 3192 3193 3193 3193 3194 3194 3194 3194 3193 3193 3193 3192 3191 3190 3189 3188 3187 3185 3184 3183 3182 3181 3179 3178 3177 3176 3174
3186 3187 3189 3190 3192 3193 3194 3195 3196 3195 3196 3196 3196 3196 3195 3195 3194 3194 3193 3192 3190 3189 3187 3186 3185 3183 3182 3181 3179 3178 3177 3176 3175
3187 3189 3191 3192 3194 3195 3196 3197 3198 3198 3198 3198 3198 3197 3197 3196 3196 3195 3194 3193 3191 3190 3188 3187 3185 3184 3182 3180 3179 3178 3176 3175 3175
3188 3190 3192 3194 3196 3197 3199 3199 3199 3200 3200 3200 3199 3198 3198 3197 3197 3196 3195 3194 3192 3191 3189 3187 3186 3184 3183 3181 3179 3178 3176 3175 3174
3190 3191 3194 3195 3197 3198 3199 3200 3201 3201 3201 3200 3200 3199 3198 3197 3197 3196 3195 3194 3193 3191 3190 3188 3186 3184 3183 3181 3179 3177 3176 3175 3174
3191 3193 3195 3196 3198 3199 3199 3200 3201 3201 3201 3201 3200 3200 3198 3198 3197 3196 3195 3195 3193 3192 3190 3188 3186 3184 3182 3180 3178 3177 3175 3174 3173
3192 3194 3195 3197 3198 3199 3200 3201 3201 3201 3201 3201 3201 3200 3199 3198 3197 3196 3196 3194 3193 3192 3190 3188 3186 3183 3181 3179 3177 3175 3174 3173 3172
3192 3194 3195 3197 3199 3200 3201 3201 3201 3201 3201 3201 3200 3200 3199 3198 3197 3196 3195 3194 3193 3191 3190 3188 3185 3183 3181 3178 3176 3174 3173 3172 3171
3192 3194 3196 3197 3198 3199 3200 3201 3201 3201 3200 3200 3200 3199 3198 3197 3196 3195 3194 3193 3192 3191 3189 3187 3185 3182 3179 3177 3175 3173 3172 3171 3170
3192 3193 3195 3196 3197 3198 3199 3199 3199 3199 3199 3199 3198 3197 3197 3196 3195 3194 3193 3192 3190 3189 3188 3186 3184 3182 3179 3176 3174 3172 3171 3169 3168
3191 3193 3194 3195 3196 3196 3197 3197 3197 3197 3197 3196 3195 3194 3194 3194 3193 3192 3191 3190 3189 3188 3186 3185 3183 3181 3178 3176 3173 3171 3169 3167 3166
3189 3191 3192 3193 3194 3194 3195 3195 3195 3194 3194 3193 3192 3192 3191 3190 3190 3189 3188 3187 3186 3184 3183 3181 3180 3178 3177 3175 3173 3170 3167 3165 3163
3187 3188 3189 3190 3190 3190 3191 3191 3191 3190 3189 3189 3188 3188 3188 3187 3186 3185 3184 3184 3183 3181 3180 3178 3176 3176 3174 3172 3170 3168 3166 3164 3161
3183 3184 3185 3185 3185 3186 3186 3186 3186 3185 3184 3184 3184 3184 3183 3182 3181 3181 3180 3179 3178 3177 3175 3174 3173 3171 3169 3167 3166 3164 3162 3161 3160
3178 3179 3180 3180 3180 3180 3180 3180 3180 3180 3178 3180 3179 3179 3180 3178 3178 3177 3176 3175 3174 3172 3170 3169 3167 3166 3166 3163 3161 3159 3158 3156 3156
3171 3172 3174 3174 3174 3174 3173 3173 3171 3172 3172 3172 3173 3173 3173 3172 3172 3172 3171 3170 3170 3168 3167 3165 3164 3162 3161 3159 3156 3154 3153 3152 3151
3166 3166 3169 3169 3170 3169 3170 3168 3165 3165 3164 3164 3164 3164 3164 3164 3164 3165 3163 3164 3165 3162 3161 3160 3159 3158 3156 3154 3152 3149 3148 3147 3146
3160 3162 3164 3164 3164 3164 3164 3162 3149 3154 3156 3156 3158 3158 3159 3158 3156 3155 3156 3155 3154 3156 3156 3154 3153 3151 3151 3149 3147 3146 3144 3142 3141
Wind_Speed
14 13 13 14 14 13 13 12 13 15 14 15 14 15 16 17 17 18 17 16 16 16 15 14 14 14 13 13 13 12 12 12 12
14 14 14 14 13 13 14 15 15 17 18 17 16 16 16 16 15 15 14 14 14 13 13 13 13 13 13 13 13 12 12 12 12
15 15 15 14 15 16 17 18 18 18 17 16 15 15 15 14 14 13 13 14 13 12 12 12 11 11 11 11 11 11 11 11 11
16 16 16 17 18 19 18 18 17 16 14 13 12 12 12 12 12 12 12 13 13 13 12 12 11 11 11 11 11 10 10 10 10
17 17 18 19 19 18 18 17 17 16 15 14 12 11 11 11 11 12 12 13 14 14 13 13 12 12 12 12 11 10 10 10 10
19 20 20 19 18 17 16 15 14 14 13 11 11 11 11 11 10 11 11 12 14 13 13 13 13 13 12 13 13 12 11 10 10
21 21 20 18 16 14 12 11 10 10 10 9 9 9 9 9 9 9 10 11 12 13 13 14 14 13 13 13 13 12 11 10 10
20 18 16 14 11 9 8 6 6 7 7 7 8 8 8 7 8 8 9 10 12 13 14 15 15 16 16 15 13 13 12 11 10
18 16 13 10 8 6 4 3 5 6 6 7 7 7 7 6 7 8 9 10 11 13 14 16 18 18 17 15 14 14 13 10 10
16 13 10 7 4 2 1 3 5 6 7 7 8 7 7 7 7 8 9 11 12 14 15 16 18 19 19 19 16 14 13 12 10
14 11 8 5 4 3 4 5 7 8 8 8 9 9 8 8 9 9 10 11 12 14 15 17 19 20 22 18 16 13 14 12 11
14 11 9 8 8 8 9 9 10 11 10 10 11 10 10 10 10 12 13 14 14 15 16 17 18 21 21 17 15 16 13 14 14
16 14 13 13 13 13 14 14 14 14 14 14 13 13 12 12 12 13 14 15 16 18 18 17 17 20 19 15 16 16 17 17 17
19 19 18 18 18 18 20 19 19 19 18 19 17 16 15 14 14 14 15 16 17 18 19 20 19 20 18 13 11 15 19 20 19
23 23 23 23 23 24 24 24 24 23 23 22 20 19 19 17 16 17 17 17 18 19 20 21 20 21 19 15 11 13 16 17 18
29 29 29 29 29 29 29 28 27 26 26 25 24 23 22 20 19 19 19 19 19 20 21 21 23 21 19 19 17 16 16 15 16
31 30 30 30 31 31 29 26 24 26 24 26 27 26 24 24 22 22 22 21 20 21 21 26 22 26 22 21 20 17 16 15 17
30 30 29 30 31 32 32 27 25 36 32 35 29 29 27 26 26 24 22 22 21 21 24 24 24 26 28 23 21 19 17 16 16
29 26 23 29 28 22 29 34 36 36 28 26 29 38 39 30 36 36 38 35 33 24 22 20 28 28 28 24 24 20 18 19 19
26 27 26 23 28 30 31 41 39 37 39 32 29 32 35 38 42 42 34 31 37 30 24 25 32 30 28 26 23 19 19 20 21
Wind_Direction
135 130 125 120 119 115 109 107 98 95 93 88 85 84 79 74 71 68 65 63 62 61 59 58 55 51 48 45 41 39 37 32 30
134 131 125 122 119 112 107 102 98 96 91 87 83 78 74 69 66 64 62 58 56 54 52 49 47 45 41 39 36 32 31 29 28
138 132 127 121 115 109 105 102 95 88 84 80 75 69 65 61 58 53 50 47 45 43 42 40 36 33 30 27 25 24 23 22 23
136 131 126 119 113 108 101 94 88 81 74 71 64 61 56 49 47 45 43 40 37 34 33 30 25 21 19 15 13 9 6 7 10
133 127 121 115 109 101 93 86 79 74 64 55 50 46 46 42 38 39 38 37 33 30 28 24 19 17 15 14 10 4 1 359 360
130 123 115 107 98 88 79 72 66 62 61 49 38 34 36 37 33 35 35 33 30 30 27 20 16 14 13 10 6 1 1 357 356
126 119 112 104 96 89 81 67 55 48 45 43 33 25 28 31 29 28 26 25 22 21 17 10 8 4 357 356 355 355 354 349 348
125 119 112 108 103 95 83 65 50 36 25 23 20 13 12 15 17 17 15 13 12 10 4 360 356 352 350 346 344 348 346 339 339
131 127 124 122 117 106 81 45 15 4 357 353 355 353 353 350 354 359 2 1 0 360 357 354 353 349 348 350 343 337 336 333 329
145 145 146 142 138 129 18 343 336 333 330 328 326 328 330 331 336 340 345 347 348 348 346 346 348 352 347 337 337 336 332 326 325
166 170 177 192 218 260 289 301 302 305 309 304 303 303 309 311 320 326 329 329 333 337 336 340 342 345 340 335 334 338 334 331 325
189 199 211 237 256 269 277 284 291 295 292 286 288 292 299 298 304 311 317 319 321 326 328 338 334 335 337 338 336 335 330 321 316
211 224 236 249 262 272 278 281 284 287 285 278 277 276 277 281 290 299 306 310 315 318 322 324 325 330 336 332 321 316 318 315 313
226 235 244 254 263 271 276 280 281 283 280 272 271 269 270 273 280 286 294 302 306 310 313 316 321 325 326 318 303 301 302 303 301
240 247 253 258 263 268 272 274 276 277 278 272 265 265 266 265 270 276 285 295 302 306 307 307 310 315 322 319 299 283 287 291 298
254 254 256 259 263 266 269 272 275 275 275 267 261 260 261 262 264 271 280 288 297 300 301 301 303 316 324 318 313 297 286 284 274
263 264 266 267 268 269 267 267 271 278 272 268 268 261 262 261 265 269 275 285 295 301 303 306 306 314 322 316 310 300 293 285 284
262 264 268 273 272 269 262 251 272 293 267 261 258 269 261 259 265 267 274 285 285 284 292 300 312 293 310 313 310 301 294 289 286
263 266 269 283 277 283 268 266 279 276 286 270 271 265 272 267 255 254 268 268 274 293 293 269 306 304 307 308 306 294 292 294 293
260 260 277 270 285 286 286 282 272 264 257 262 278 271 267 262 269 281 276 276 270 268 285 288 299 300 302 305 305 295 293 295 297